Location: Mentone
(34.5413°N, 85.5351°W)
Time: 03:35:55
(UTC-05:00)

Vanguard 1 - Visible Passes

Search period start: 25 April 2017 00:00
Search period end: 05 May 2017 00:00
Orbit: 654 x 3830 km, 34.2° (Epoch: 23 April)

Date Brightness Start Highest point End Pass type
(mag) Time Alt. Az. Time Alt. Az. Time Alt. Az.
25 Apr 12.6 00:07:12 10° SW 00:29:45 67° SSE 00:49:50 10° ENE visible
25 Apr 12.5 02:41:05 28° W 02:56:54 88° S 03:12:50 10° E visible
25 Apr 12.1 05:01:59 10° W 05:22:39 80° SSW 05:33:57 10° ESE visible
25 Apr 13.6 19:59:49 10° SE 20:02:52 10° SE 20:05:58 10° ESE visible
25 Apr 13.0 22:07:09 10° SSW 22:32:53 35° ESE 22:45:46 10° ENE visible
26 Apr 12.6 00:28:21 10° WSW 00:51:24 74° SSE 01:11:21 10° ENE visible
26 Apr 12.5 02:57:30 15° W 03:18:47 89° S 03:34:10 10° E visible
26 Apr 12.1 05:24:04 10° WNW 05:44:01 72° SSW 05:54:53 10° ESE visible
26 Apr 13.4 20:12:59 10° SSE 20:23:30 17° SE 20:35:34 10° E visible
26 Apr 12.8 22:27:16 10° SSW 22:46:37 50° SE 23:07:52 10° ENE visible
27 Apr 12.6 00:49:45 10° WSW 01:13:11 81° SSE 01:32:51 10° E visible
27 Apr 12.4 03:17:03 10° W 03:40:38 89° S 03:55:28 10° E visible
27 Apr 13.2 20:30:45 10° S 20:44:07 25° SE 21:00:14 10° E visible
27 Apr 12.7 22:47:45 10° SW 23:07:53 59° SSE 23:29:45 10° ENE visible
28 Apr 12.6 01:11:20 10° WSW 01:35:05 86° SSE 01:54:20 10° E visible
28 Apr 12.4 03:39:08 10° W 04:02:24 85° SSW 04:16:42 10° ESE visible
28 Apr 13.0 20:49:45 10° S 21:04:48 33° SE 21:23:34 10° E visible
28 Apr 12.7 23:08:33 10° SW 23:29:20 68° SSE 23:51:29 10° ENE visible
29 Apr 12.6 01:33:06 10° W 01:57:03 89° S 02:15:48 10° E visible
29 Apr 12.3 04:01:12 10° W 04:24:03 80° SSW 04:37:49 10° ESE visible
29 Apr 12.8 21:09:23 10° SSW 21:25:35 41° SE 21:46:12 10° ENE visible
29 Apr 12.6 23:29:38 10° WSW 23:50:57 75° SSE 00:13:10 10° ENE visible
30 Apr 12.6 01:54:58 10° W 02:19:03 89° S 02:37:15 10° E visible
30 Apr 12.3 04:23:14 10° WNW 04:45:32 72° SSW 04:58:50 10° ESE visible
30 Apr 12.7 21:29:30 10° SSW 21:46:32 50° SE 22:08:26 10° ENE visible
30 Apr 12.7 23:50:55 10° WSW 00:12:45 81° SSE 00:34:48 10° E visible
01 May 12.6 02:16:54 10° W 02:41:01 88° S 02:58:39 10° E visible
01 May 12.3 04:45:18 10° WNW 05:06:49 63° SSW 05:19:39 10° SE visible
01 May 13.1 19:33:44 10° S 19:45:00 23° SE 19:59:40 10° E visible
01 May 12.6 21:49:58 10° SW 22:07:40 59° SSE 22:30:26 10° ENE visible
02 May 12.7 00:12:24 10° WSW 00:34:41 86° S 00:56:26 10° E visible
02 May 12.6 02:38:51 10° W 03:02:55 85° SSW 03:19:59 10° ESE visible
02 May 12.4 05:07:24 10° WNW 05:27:51 54° SW 05:40:14 10° SE visible
02 May 12.9 19:52:42 10° S 20:05:30 31° SE 20:23:08 10° E visible
02 May 12.6 22:10:43 10° SW 22:29:01 68° SSE 22:52:19 10° ENE visible
03 May 12.7 00:34:01 10° W 00:56:42 89° S 01:18:03 10° E visible
03 May 12.5 03:00:48 10° W 03:24:42 80° SSW 03:41:12 10° ESE visible
03 May 12.8 20:12:20 10° SSW 20:26:06 40° SE 20:45:53 10° ENE visible
03 May 12.6 22:31:43 10° WSW 22:50:34 76° SSE 23:14:08 10° ENE visible
04 May 12.7 00:55:44 10° W 01:18:46 89° S 01:39:39 10° E visible
04 May 12.5 03:22:44 10° WNW 03:46:17 73° SSW 04:02:16 10° ESE visible
04 May 12.6 20:32:27 10° SSW 20:46:55 49° SE 21:08:14 10° ENE visible
04 May 12.6 22:52:54 10° WSW 23:12:19 82° SSE 23:35:56 10° E visible
